User: anonymous   Login
Location: Unspecified
(0.0000°N, 0.0000°E)
Time: 02:00:47
(UTC+00:00)
Language:

STARLINK-35955 - Orbit

View from above orbital plane
View from above orbital plane
View from above satellite
View from above satellite

Ground track
Ground track

The orbit is defined by the following mean orbital elements,

1 66635U          26145.29514755 +.00000000 +00000-0 +39458-3 0 00007
2 66635  53.1563 144.2234 0001037  69.1665 290.9446 15.30206520    03
Epoch (UTC): 25 May 2026 07:05:00
Eccentricity: 0.0001037
inclination: 53.1563°
perigee height: 474 km
apogee height: 476 km
right ascension of ascending node: 144.2234°
argument of perigee: 69.1665°
revolutions per day: 15.30206520
mean anomaly at epoch: 290.9446°

The dashed part of the orbit path shows where the satellite is in the earth's shadow,  

DLR